QPF
0.00 0.00 0.00 0.00 0.00 0.00 0.00 0.00 0.00 0.00 0.00 0.00 0.00 0.00 0.00 0.00 0.00 0.00 0.00 0.00 0.00 0.00 0.00 0.00 0.00 0.00 0.00 0.00 0.00 0.00 0.00 0.00 0.00 0.00 0.00 0.00 0.00 0.00 0.00 0.00 0.00 0.00 0.00
0.00 0.00 0.00 0.00 0.00 0.00 0.00 0.00 0.00 0.00 0.00 0.00 0.00 0.00 0.00 0.00 0.00 0.00 0.00 0.00 0.00 0.00 0.00 0.00 0.00 0.00 0.00 0.00 0.00 0.00 0.00 0.00 0.00 0.00 0.00 0.00 0.00 0.00 0.00 0.00 0.00 0.00 0.00
0.00 0.00 0.00 0.00 0.00 0.00 0.00 0.00 0.00 0.00 0.00 0.00 0.00 0.00 0.00 0.00 0.00 0.00 0.00 0.00 0.00 0.00 0.00 0.00 0.00 0.00 0.00 0.00 0.00 0.00 0.00 0.00 0.00 0.00 0.00 0.00 0.00 0.00 0.00 0.00 0.00 0.00 0.00
0.00 0.00 0.00 0.00 0.00 0.00 0.00 0.00 0.00 0.00 0.00 0.00 0.00 0.00 0.00 0.00 0.00 0.00 0.00 0.00 0.00 0.00 0.00 0.00 0.00 0.00 0.00 0.00 0.00 0.00 0.00 0.00 0.00 0.01 0.01 0.01 0.01 0.00 0.01 0.01 0.01 0.01 0.01
0.00 0.00 0.00 0.00 0.00 0.00 0.00 0.00 0.00 0.00 0.00 0.00 0.00 0.00 0.00 0.00 0.00 0.00 0.00 0.00 0.00 0.00 0.00 0.00 0.00 0.00 0.00 0.00 0.00 0.00 0.00 0.01 0.01 0.01 0.01 0.01 0.01 0.01 0.01 0.02 0.02 0.01 0.01
0.00 0.00 0.00 0.00 0.00 0.00 0.00 0.00 0.00 0.00 0.00 0.00 0.00 0.00 0.00 0.00 0.00 0.00 0.00 0.00 0.00 0.00 0.00 0.00 0.00 0.00 0.00 0.00 0.00 0.00 0.01 0.01 0.02 0.02 0.02 0.02 0.01 0.01 0.02 0.02 0.03 0.03 0.02
0.00 0.00 0.00 0.00 0.00 0.00 0.00 0.00 0.00 0.00 0.00 0.00 0.00 0.00 0.00 0.00 0.00 0.00 0.00 0.00 0.00 0.00 0.00 0.00 0.00 0.00 0.00 0.00 0.00 0.00 0.00 0.01 0.02 0.02 0.03 0.02 0.02 0.02 0.02 0.03 0.03 0.04 0.03
0.00 0.00 0.00 0.00 0.00 0.00 0.00 0.00 0.00 0.00 0.00 0.00 0.00 0.00 0.00 0.00 0.00 0.00 0.00 0.00 0.00 0.00 0.00 0.00 0.00 0.00 0.00 0.00 0.00 0.00 0.01 0.01 0.01 0.02 0.02 0.02 0.02 0.02 0.04 0.05 0.06 0.06 0.03
0.00 0.00 0.00 0.00 0.00 0.00 0.00 0.00 0.00 0.00 0.00 0.00 0.00 0.00 0.00 0.00 0.00 0.00 0.00 0.00 0.00 0.00 0.00 0.00 0.00 0.00 0.00 0.01 0.01 0.01 0.01 0.01 0.01 0.02 0.03 0.03 0.04 0.05 0.05 0.05 0.06 0.06 0.04
0.00 0.00 0.00 0.00 0.00 0.00 0.00 0.00 0.00 0.00 0.00 0.00 0.00 0.00 0.00 0.00 0.00 0.00 0.00 0.00 0.00 0.00 0.00 0.00 0.00 0.00 0.01 0.01 0.02 0.02 0.02 0.01 0.01 0.01 0.02 0.02 0.02 0.01 0.02 0.02 0.02 0.04 0.03
0.00 0.00 0.00 0.00 0.00 0.00 0.00 0.00 0.00 0.00 0.00 0.00 0.00 0.00 0.00 0.00 0.00 0.00 0.00 0.00 0.00 0.00 0.00 0.00 0.00 0.01 0.01 0.01 0.02 0.02 0.02 0.03 0.03 0.03 0.03 0.02 0.01 0.01 0.01 0.01 0.01 0.02 0.04
0.00 0.00 0.00 0.00 0.00 0.00 0.00 0.00 0.00 0.00 0.00 0.00 0.00 0.00 0.00 0.00 0.00 0.00 0.00 0.00 0.00 0.00 0.00 0.00 0.00 0.01 0.01 0.02 0.02 0.02 0.03 0.03 0.02 0.02 0.02 0.01 0.01 0.01 0.01 0.01 0.01 0.01 0.01
0.00 0.00 0.00 0.00 0.00 0.00 0.00 0.00 0.00 0.00 0.00 0.00 0.00 0.00 0.00 0.00 0.00 0.00 0.00 0.00 0.01 0.01 0.01 0.01 0.01 0.02 0.02 0.01 0.01 0.02 0.02 0.01 0.01 0.01 0.01 0.01 0.01 0.01 0.01 0.01 0.01 0.01 0.00
0.00 0.00 0.00 0.00 0.00 0.00 0.00 0.00 0.00 0.00 0.00 0.00 0.00 0.00 0.00 0.00 0.00 0.00 0.00 0.01 0.01 0.01 0.01 0.01 0.02 0.02 0.01 0.01 0.01 0.01 0.01 0.01 0.01 0.01 0.01 0.01 0.01 0.01 0.01 0.01 0.01 0.01 0.02
0.00 0.00 0.00 0.00 0.00 0.00 0.00 0.00 0.00 0.00 0.00 0.00 0.00 0.00 0.00 0.00 0.00 0.01 0.01 0.01 0.01 0.02 0.02 0.02 0.02 0.02 0.02 0.02 0.01 0.01 0.01 0.01 0.01 0.01 0.01 0.01 0.01 0.01 0.01 0.01 0.01 0.01 0.02
0.00 0.00 0.00 0.00 0.00 0.00 0.00 0.00 0.00 0.00 0.00 0.00 0.00 0.00 0.00 0.00 0.00 0.01 0.01 0.01 0.01 0.02 0.02 0.03 0.02 0.02 0.02 0.02 0.02 0.01 0.01 0.01 0.01 0.01 0.01 0.01 0.01 0.01 0.01 0.01 0.01 0.02 0.02
0.00 0.00 0.00 0.00 0.00 0.00 0.00 0.00 0.00 0.00 0.00 0.00 0.00 0.00 0.00 0.00 0.00 0.00 0.01 0.01 0.01 0.01 0.02 0.01 0.01 0.01 0.01 0.01 0.01 0.01 0.01 0.01 0.01 0.01 0.01 0.01 0.02 0.02 0.01 0.02 0.01 0.02 0.02
0.00 0.00 0.00 0.00 0.00 0.00 0.00 0.00 0.00 0.00 0.00 0.00 0.00 0.00 0.00 0.00 0.00 0.01 0.01 0.01 0.01 0.00 0.01 0.01 0.01 0.01 0.01 0.01 0.01 0.01 0.01 0.01 0.01 0.01 0.01 0.02 0.02 0.02 0.02 0.02 0.02 0.02 0.02
0.00 0.00 0.00 0.00 0.00 0.00 0.00 0.00 0.00 0.00 0.00 0.00 0.00 0.00 0.00 0.00 0.00 0.00 0.01 0.01 0.01 0.01 0.01 0.01 0.01 0.01 0.01 0.01 0.01 0.01 0.01 0.01 0.01 0.01 0.01 0.01 0.01 0.01 0.02 0.01 0.01 0.01 0.02
0.00 0.00 0.00 0.00 0.00 0.00 0.00 0.00 0.00 0.00 0.00 0.00 0.00 0.00 0.00 0.01 0.01 0.01 0.01 0.01 0.01 0.01 0.01 0.01 0.01 0.01 0.01 0.01 0.02 0.02 0.02 0.01 0.01 0.01 0.01 0.01 0.01 0.01 0.02 0.02 0.01 0.01 0.01
0.00 0.00 0.00 0.00 0.00 0.00 0.00 0.00 0.00 0.00 0.00 0.00 0.00 0.00 0.01 0.01 0.01 0.01 0.00 0.01 0.01 0.01 0.01 0.01 0.01 0.01 0.01 0.02 0.02 0.02 0.01 0.01 0.01 0.01 0.01 0.01 0.01 0.02 0.02 0.01 0.01 0.01 0.01
0.00 0.00 0.00 0.00 0.00 0.00 0.00 0.00 0.00 0.00 0.00 0.00 0.00 0.00 0.00 0.00 0.00 0.00 0.00 0.00 0.00 0.01 0.01 0.01 0.01 0.01 0.01 0.02 0.02 0.02 0.01 0.01 0.01 0.01 0.01 0.01 0.01 0.01 0.01 0.01 0.01 0.01 0.01
0.00 0.00 0.00 0.00 0.00 0.00 0.00 0.00 0.00 0.00 0.00 0.00 0.00 0.00 0.00 0.00 0.00 0.00 0.00 0.00 0.01 0.01 0.01 0.01 0.01 0.01 0.01 0.01 0.01 0.01 0.02 0.01 0.01 0.01 0.01 0.02 0.01 0.01 0.01 0.01 0.01 0.01 0.01
0.00 0.00 0.00 0.00 0.00 0.00 0.00 0.00 0.00 0.00 0.00 0.00 0.00 0.00 0.00 0.00 0.00 0.00 0.00 0.00 0.01 0.01 0.01 0.01 0.01 0.01 0.01 0.01 0.01 0.01 0.01 0.01 0.01 0.02 0.02 0.02 0.02 0.01 0.01 0.01 0.01 0.01 0.01
0.00 0.00 0.00 0.00 0.00 0.00 0.00 0.00 0.00 0.00 0.00 0.00 0.00 0.00 0.00 0.00 0.00 0.00 0.00 0.00 0.00 0.00 0.00 0.01 0.01 0.01 0.01 0.01 0.00 0.00 0.01 0.01 0.02 0.03 0.04 0.03 0.02 0.01 0.01 0.01 0.01 0.01 0.01
0.00 0.00 0.00 0.00 0.00 0.00 0.00 0.00 0.00 0.00 0.00 0.00 0.00 0.00 0.00 0.00 0.00 0.00 0.00 0.00 0.01 0.01 0.01 0.00 0.00 0.00 0.01 0.00 0.00 0.00 0.01 0.02 0.02 0.03 0.04 0.05 0.03 0.02 0.02 0.02 0.02 0.02 0.01
MSLP
1010.67 1011.12 1011.65 1012.24 1012.89 1013.58 1014.30 1015.05 1015.80 1016.56 1017.30 1018.01 1018.67 1019.29 1019.83 1020.32 1020.75 1021.13 1021.47 1021.79 1022.08 1022.36 1022.62 1022.85 1023.04 1023.17 1023.24 1023.24 1023.17 1023.03 1022.83 1022.58 1022.29 1021.96 1021.62 1021.26 1020.89 1020.52 1020.14 1019.75 1019.35 1018.94 1018.50
1010.41 1010.87 1011.39 1011.97 1012.59 1013.26 1013.96 1014.69 1015.43 1016.18 1016.91 1017.62 1018.29 1018.91 1019.46 1019.96 1020.40 1020.79 1021.14 1021.44 1021.72 1021.96 1022.17 1022.35 1022.48 1022.56 1022.60 1022.58 1022.51 1022.40 1022.25 1022.06 1021.84 1021.59 1021.31 1021.00 1020.67 1020.31 1019.93 1019.52 1019.09 1018.63 1018.13
1010.18 1010.67 1011.20 1011.77 1012.37 1013.01 1013.68 1014.37 1015.08 1015.80 1016.51 1017.20 1017.86 1018.47 1019.03 1019.53 1019.98 1020.38 1020.72 1021.03 1021.29 1021.51 1021.69 1021.82 1021.91 1021.96 1021.96 1021.92 1021.86 1021.76 1021.65 1021.51 1021.35 1021.17 1020.95 1020.70 1020.41 1020.07 1019.70 1019.28 1018.82 1018.32 1017.77
1009.94 1010.48 1011.04 1011.60 1012.19 1012.79 1013.42 1014.07 1014.74 1015.42 1016.10 1016.76 1017.39 1017.99 1018.54 1019.05 1019.50 1019.90 1020.26 1020.57 1020.83 1021.04 1021.20 1021.31 1021.37 1021.39 1021.37 1021.32 1021.24 1021.16 1021.06 1020.96 1020.84 1020.71 1020.54 1020.33 1020.08 1019.77 1019.41 1018.99 1018.52 1018.00 1017.43
1009.70 1010.29 1010.87 1011.43 1012.00 1012.57 1013.16 1013.76 1014.39 1015.02 1015.66 1016.29 1016.90 1017.48 1018.03 1018.53 1018.98 1019.40 1019.76 1020.08 1020.35 1020.57 1020.73 1020.84 1020.89 1020.89 1020.85 1020.78 1020.69 1020.60 1020.51 1020.42 1020.32 1020.20 1020.07 1019.89 1019.67 1019.39 1019.05 1018.65 1018.19 1017.67 1017.10
1009.45 1010.07 1010.67 1011.23 1011.77 1012.31 1012.86 1013.43 1014.02 1014.62 1015.23 1015.83 1016.42 1016.98 1017.51 1018.01 1018.47 1018.89 1019.27 1019.60 1019.89 1020.12 1020.29 1020.40 1020.45 1020.44 1020.39 1020.30 1020.20 1020.09 1019.98 1019.87 1019.77 1019.66 1019.54 1019.38 1019.18 1018.92 1018.61 1018.24 1017.81 1017.32 1016.77
1009.18 1009.83 1010.42 1010.97 1011.50 1012.02 1012.54 1013.08 1013.64 1014.22 1014.80 1015.39 1015.96 1016.51 1017.03 1017.52 1017.97 1018.40 1018.79 1019.13 1019.43 1019.68 1019.86 1019.98 1020.03 1020.02 1019.95 1019.85 1019.72 1019.59 1019.45 1019.33 1019.21 1019.09 1018.96 1018.80 1018.62 1018.39 1018.11 1017.78 1017.39 1016.95 1016.44
1008.93 1009.56 1010.15 1010.68 1011.19 1011.70 1012.21 1012.73 1013.28 1013.85 1014.43 1015.00 1015.56 1016.09 1016.60 1017.08 1017.52 1017.94 1018.32 1018.67 1018.97 1019.22 1019.41 1019.53 1019.58 1019.57 1019.50 1019.38 1019.23 1019.07 1018.91 1018.76 1018.62 1018.48 1018.35 1018.20 1018.03 1017.82 1017.58 1017.29 1016.95 1016.56 1016.11
1008.70 1009.31 1009.87 1010.39 1010.89 1011.39 1011.90 1012.43 1012.98 1013.54 1014.12 1014.68 1015.23 1015.75 1016.23 1016.69 1017.11 1017.51 1017.87 1018.20 1018.49 1018.74 1018.92 1019.04 1019.09 1019.07 1018.99 1018.86 1018.71 1018.53 1018.36 1018.19 1018.03 1017.88 1017.74 1017.60 1017.44 1017.26 1017.05 1016.81 1016.52 1016.18 1015.79
1008.53 1009.10 1009.64 1010.14 1010.63 1011.13 1011.65 1012.19 1012.74 1013.31 1013.88 1014.43 1014.96 1015.45 1015.91 1016.33 1016.72 1017.08 1017.42 1017.72 1017.98 1018.20 1018.37 1018.48 1018.52 1018.50 1018.42 1018.29 1018.14 1017.96 1017.79 1017.62 1017.46 1017.32 1017.18 1017.05 1016.91 1016.75 1016.57 1016.36 1016.11 1015.83 1015.50
1008.43 1008.97 1009.48 1009.97 1010.47 1010.97 1011.49 1012.04 1012.59 1013.16 1013.71 1014.24 1014.73 1015.19 1015.61 1015.99 1016.33 1016.65 1016.94 1017.20 1017.43 1017.62 1017.77 1017.86 1017.89 1017.87 1017.80 1017.68 1017.54 1017.39 1017.23 1017.08 1016.94 1016.82 1016.70 1016.58 1016.45 1016.31 1016.15 1015.97 1015.75 1015.51 1015.22
1008.43 1008.93 1009.43 1009.92 1010.41 1010.92 1011.45 1011.99 1012.54 1013.07 1013.59 1014.08 1014.53 1014.93 1015.30 1015.62 1015.91 1016.18 1016.43 1016.65 1016.85 1017.01 1017.13 1017.21 1017.24 1017.22 1017.16 1017.06 1016.95 1016.83 1016.71 1016.60 1016.49 1016.40 1016.30 1016.20 1016.09 1015.96 1015.81 1015.64 1015.44 1015.22 1014.96
1008.53 1009.01 1009.50 1009.99 1010.49 1011.00 1011.52 1012.04 1012.55 1013.05 1013.51 1013.94 1014.32 1014.66 1014.96 1015.23 1015.47 1015.70 1015.91 1016.09 1016.26 1016.40 1016.50 1016.57 1016.59 1016.58 1016.54 1016.48 1016.40 1016.33 1016.25 1016.19 1016.12 1016.06 1015.99 1015.91 1015.81 1015.68 1015.53 1015.36 1015.16 1014.95 1014.71
1008.72 1009.20 1009.69 1010.19 1010.69 1011.20 1011.69 1012.18 1012.63 1013.06 1013.45 1013.79 1014.10 1014.36 1014.60 1014.81 1015.01 1015.20 1015.38 1015.54 1015.69 1015.82 1015.91 1015.97 1016.00 1016.01 1015.99 1015.95 1015.92 1015.88 1015.86 1015.84 1015.82 1015.80 1015.75 1015.69 1015.59 1015.46 1015.29 1015.11 1014.90 1014.68 1014.45
1009.01 1009.50 1009.99 1010.50 1011.00 1011.48 1011.94 1012.37 1012.75 1013.09 1013.39 1013.64 1013.86 1014.04 1014.21 1014.38 1014.54 1014.71 1014.87 1015.02 1015.17 1015.29 1015.38 1015.45 1015.48 1015.50 1015.49 1015.49 1015.48 1015.49 1015.51 1015.53 1015.55 1015.56 1015.54 1015.48 1015.38 1015.24 1015.06 1014.85 1014.63 1014.40 1014.18
1009.36 1009.86 1010.37 1010.88 1011.37 1011.82 1012.23 1012.59 1012.89 1013.13 1013.33 1013.48 1013.60 1013.71 1013.83 1013.95 1014.08 1014.23 1014.39 1014.54 1014.69 1014.81 1014.91 1014.98 1015.02 1015.04 1015.05 1015.06 1015.08 1015.11 1015.16 1015.22 1015.27 1015.30 1015.29 1015.24 1015.14 1014.99 1014.80 1014.58 1014.34 1014.10 1013.88
1009.76 1010.27 1010.79 1011.29 1011.76 1012.17 1012.52 1012.80 1013.02 1013.16 1013.25 1013.31 1013.35 1013.39 1013.44 1013.53 1013.64 1013.78 1013.93 1014.09 1014.24 1014.37 1014.47 1014.53 1014.57 1014.59 1014.60 1014.62 1014.66 1014.71 1014.78 1014.85 1014.93 1014.98 1014.99 1014.95 1014.85 1014.70 1014.50 1014.27 1014.02 1013.79 1013.57
1010.18 1010.69 1011.20 1011.68 1012.12 1012.48 1012.77 1012.98 1013.10 1013.15 1013.15 1013.12 1013.08 1013.06 1013.07 1013.11 1013.21 1013.33 1013.48 1013.64 1013.79 1013.91 1014.01 1014.07 1014.10 1014.11 1014.12 1014.14 1014.17 1014.23 1014.32 1014.41 1014.50 1014.57 1014.60 1014.57 1014.49 1014.35 1014.15 1013.93 1013.69 1013.46 1013.26
1010.58 1011.07 1011.56 1012.01 1012.41 1012.72 1012.95 1013.08 1013.13 1013.10 1013.02 1012.91 1012.81 1012.73 1012.69 1012.71 1012.77 1012.88 1013.02 1013.17 1013.30 1013.42 1013.50 1013.54 1013.56 1013.56 1013.56 1013.58 1013.61 1013.68 1013.77 1013.88 1013.99 1014.08 1014.13 1014.13 1014.07 1013.95 1013.77 1013.57 1013.35 1013.14 1012.95
1010.94 1011.40 1011.85 1012.25 1012.59 1012.86 1013.02 1013.09 1013.07 1012.98 1012.83 1012.67 1012.51 1012.39 1012.31 1012.30 1012.33 1012.42 1012.53 1012.65 1012.77 1012.86 1012.92 1012.95 1012.95 1012.94 1012.93 1012.94 1012.98 1013.05 1013.15 1013.28 1013.41 1013.53 1013.61 1013.64 1013.61 1013.52 1013.38 1013.20 1013.01 1012.83 1012.66
1011.25 1011.65 1012.04 1012.39 1012.67 1012.88 1012.99 1013.00 1012.93 1012.79 1012.60 1012.40 1012.20 1012.04 1011.93 1011.88 1011.88 1011.93 1012.01 1012.11 1012.19 1012.25 1012.29 1012.30 1012.28 1012.26 1012.25 1012.26 1012.30 1012.39 1012.50 1012.65 1012.80 1012.94 1013.05 1013.12 1013.13 1013.08 1012.98 1012.84 1012.68 1012.53 1012.39
1011.49 1011.83 1012.15 1012.43 1012.65 1012.80 1012.86 1012.83 1012.72 1012.55 1012.34 1012.11 1011.89 1011.70 1011.56 1011.48 1011.45 1011.46 1011.50 1011.55 1011.60 1011.63 1011.64 1011.63 1011.61 1011.58 1011.57 1011.59 1011.64 1011.73 1011.87 1012.03 1012.20 1012.36 1012.50 1012.60 1012.64 1012.63 1012.56 1012.46 1012.34 1012.22 1012.11
1011.69 1011.95 1012.20 1012.41 1012.57 1012.66 1012.68 1012.62 1012.48 1012.30 1012.07 1011.83 1011.60 1011.40 1011.24 1011.12 1011.05 1011.03 1011.02 1011.04 1011.05 1011.05 1011.04 1011.01 1010.98 1010.95 1010.95 1010.97 1011.03 1011.14 1011.28 1011.45 1011.63 1011.81 1011.97 1012.08 1012.15 1012.16 1012.12 1012.05 1011.96 1011.87 1011.78
1011.86 1012.06 1012.23 1012.38 1012.48 1012.52 1012.50 1012.41 1012.27 1012.07 1011.85 1011.61 1011.38 1011.16 1010.98 1010.84 1010.74 1010.68 1010.63 1010.61 1010.58 1010.55 1010.52 1010.48 1010.45 1010.42 1010.42 1010.45 1010.51 1010.62 1010.76 1010.93 1011.11 1011.29 1011.44 1011.55 1011.63 1011.65 1011.63 1011.58 1011.51 1011.44 1011.38
1012.04 1012.18 1012.29 1012.37 1012.42 1012.42 1012.37 1012.27 1012.12 1011.93 1011.71 1011.48 1011.25 1011.03 1010.83 1010.67 1010.54 1010.44 1010.35 1010.29 1010.23 1010.17 1010.11 1010.06 1010.01 1009.98 1009.98 1010.00 1010.07 1010.16 1010.29 1010.44 1010.60 1010.75 1010.89 1010.99 1011.05 1011.07 1011.06 1011.02 1010.96 1010.90 1010.86
1012.26 1012.34 1012.40 1012.44 1012.45 1012.42 1012.35 1012.23 1012.08 1011.89 1011.68 1011.46 1011.23 1011.00 1010.79 1010.61 1010.44 1010.30 1010.17 1010.06 1009.96 1009.86 1009.78 1009.70 1009.64 1009.60 1009.58 1009.59 1009.64 1009.71 1009.82 1009.93 1010.06 1010.17 1010.27 1010.35 1010.39 1010.40 1010.38 1010.34 1010.29 1010.25 1010.22
Thickness
5624 5620 5615 5610 5605 5599 5592 5586 5579 5572 5565 5557 5550 5543 5536 5529 5522 5515 5509 5503 5496 5490 5484 5478 5473 5468 5462 5457 5452 5446 5440 5435 5435 5440 5431 5425 5419 5412 5407 5400 5394 5389 5384
5618 5613 5608 5603 5597 5591 5585 5578 5572 5565 5557 5551 5543 5536 5529 5522 5515 5508 5501 5495 5488 5482 5476 5470 5464 5459 5453 5448 5442 5436 5431 5425 5420 5421 5418 5409 5401 5394 5388 5382 5375 5369 5363
5612 5606 5600 5595 5589 5583 5577 5571 5564 5557 5550 5543 5535 5528 5521 5514 5507 5500 5494 5487 5480 5474 5467 5461 5455 5449 5443 5437 5431 5425 5419 5414 5406 5402 5401 5393 5384 5376 5369 5364 5357 5350 5343
5605 5599 5593 5588 5582 5576 5570 5563 5557 5549 5542 5535 5527 5520 5513 5506 5499 5492 5485 5478 5471 5465 5458 5452 5446 5439 5433 5427 5421 5414 5407 5399 5391 5384 5381 5376 5368 5359 5349 5343 5340 5334 5328
5598 5592 5586 5581 5574 5568 5562 5555 5548 5541 5534 5526 5519 5512 5505 5497 5490 5482 5475 5468 5461 5455 5449 5443 5437 5431 5425 5418 5411 5402 5393 5384 5375 5367 5363 5357 5351 5340 5331 5325 5321 5319 5315
5591 5584 5579 5573 5566 5560 5553 5546 5539 5532 5524 5517 5510 5503 5496 5490 5483 5476 5468 5461 5454 5446 5440 5434 5428 5422 5415 5409 5401 5393 5383 5372 5361 5353 5347 5340 5334 5324 5317 5311 5305 5302 5302
5583 5577 5571 5565 5558 5551 5545 5537 5530 5522 5515 5508 5501 5494 5488 5481 5475 5468 5461 5453 5445 5438 5431 5424 5419 5412 5404 5396 5389 5382 5372 5360 5349 5340 5332 5326 5318 5313 5305 5300 5293 5288 5286
5574 5568 5562 5556 5548 5541 5534 5527 5520 5514 5507 5500 5493 5486 5479 5473 5466 5459 5452 5444 5435 5428 5420 5413 5405 5399 5391 5382 5375 5368 5358 5348 5337 5327 5319 5314 5307 5301 5293 5288 5283 5279 5278
5566 5560 5553 5547 5539 5532 5525 5518 5512 5505 5498 5491 5484 5477 5470 5463 5457 5449 5442 5433 5425 5417 5410 5402 5393 5386 5380 5371 5363 5354 5346 5337 5327 5318 5311 5304 5299 5293 5286 5279 5273 5268 5267
5557 5551 5544 5538 5530 5523 5516 5509 5503 5496 5489 5483 5475 5468 5461 5453 5447 5439 5431 5422 5413 5406 5398 5390 5381 5373 5366 5357 5347 5338 5331 5324 5316 5309 5301 5294 5288 5282 5276 5269 5263 5258 5256
5547 5541 5534 5528 5521 5514 5507 5500 5493 5486 5479 5472 5465 5458 5450 5443 5436 5428 5419 5409 5400 5393 5385 5376 5368 5359 5351 5343 5334 5325 5317 5311 5305 5297 5291 5284 5278 5273 5268 5263 5257 5252 5249
5537 5530 5524 5517 5511 5504 5497 5489 5482 5475 5467 5459 5453 5446 5438 5431 5423 5415 5407 5398 5389 5380 5372 5364 5355 5347 5339 5330 5321 5313 5306 5299 5291 5283 5278 5272 5268 5264 5260 5257 5253 5249 5246
5526 5519 5512 5506 5499 5493 5486 5478 5471 5463 5454 5447 5439 5432 5426 5418 5410 5403 5395 5386 5377 5367 5359 5351 5343 5335 5326 5318 5309 5302 5294 5285 5277 5271 5266 5262 5259 5256 5253 5251 5248 5246 5243
5515 5507 5501 5494 5487 5481 5474 5467 5459 5450 5442 5434 5426 5419 5413 5405 5396 5387 5379 5370 5362 5353 5345 5337 5330 5321 5312 5305 5298 5289 5280 5273 5266 5261 5257 5254 5251 5249 5246 5244 5242 5240 5238
5503 5496 5489 5483 5476 5469 5462 5455 5448 5441 5432 5423 5416 5407 5399 5392 5384 5375 5365 5357 5347 5338 5331 5324 5314 5306 5298 5291 5284 5277 5270 5264 5258 5253 5249 5246 5244 5242 5240 5238 5236 5235 5233
5491 5484 5477 5470 5464 5457 5450 5443 5438 5430 5423 5415 5407 5398 5390 5382 5373 5364 5354 5344 5335 5326 5317 5308 5300 5292 5285 5279 5272 5266 5260 5254 5250 5246 5242 5239 5238 5235 5234 5233 5232 5230 5230
5480 5472 5465 5458 5452 5445 5438 5430 5423 5418 5410 5402 5394 5386 5377 5369 5359 5350 5340 5331 5322 5312 5301 5293 5286 5279 5273 5266 5260 5255 5250 5246 5242 5239 5236 5233 5232 5231 5230 5229 5228 5227 5228
5468 5462 5454 5447 5440 5433 5425 5418 5411 5404 5396 5388 5381 5372 5363 5355 5345 5336 5326 5317 5307 5296 5286 5279 5273 5267 5261 5255 5250 5246 5242 5239 5236 5233 5230 5228 5226 5226 5225 5225 5225 5224 5225
5456 5448 5442 5435 5428 5421 5414 5406 5398 5391 5383 5375 5367 5358 5349 5341 5332 5321 5311 5300 5291 5283 5275 5269 5262 5256 5251 5246 5242 5238 5235 5232 5230 5227 5225 5224 5222 5221 5222 5222 5222 5224 5225
5444 5439 5432 5424 5416 5409 5401 5393 5385 5377 5369 5360 5352 5343 5335 5325 5315 5305 5296 5286 5278 5272 5265 5259 5253 5248 5243 5238 5234 5231 5229 5227 5225 5223 5221 5220 5220 5219 5219 5220 5220 5221 5221
5431 5425 5421 5412 5404 5396 5388 5380 5372 5363 5355 5347 5338 5329 5321 5311 5301 5292 5283 5275 5267 5261 5255 5250 5245 5240 5236 5232 5229 5227 5225 5223 5221 5220 5218 5217 5217 5218 5218 5218 5219 5219 5220
5420 5413 5407 5400 5392 5384 5376 5368 5359 5351 5342 5334 5325 5316 5307 5297 5287 5279 5272 5265 5258 5252 5247 5243 5238 5234 5230 5227 5225 5223 5221 5220 5219 5217 5216 5215 5215 5216 5216 5217 5217 5218 5219
5408 5402 5395 5388 5381 5374 5365 5355 5346 5337 5329 5320 5312 5303 5294 5284 5276 5269 5262 5257 5251 5246 5241 5237 5233 5229 5226 5224 5222 5220 5219 5218 5217 5215 5214 5214 5214 5214 5215 5215 5216 5217 5218
5397 5390 5383 5376 5368 5360 5351 5342 5333 5324 5315 5307 5299 5290 5282 5273 5266 5260 5254 5249 5245 5240 5236 5232 5229 5226 5224 5222 5220 5219 5218 5217 5215 5215 5214 5213 5213 5213 5214 5214 5215 5216 5218
5385 5378 5371 5363 5355 5346 5337 5329 5320 5311 5303 5295 5287 5279 5271 5264 5258 5253 5248 5243 5239 5235 5232 5228 5226 5224 5222 5220 5219 5218 5217 5217 5216 5216 5215 5214 5214 5213 5213 5214 5215 5216 5217
5373 5366 5358 5350 5341 5332 5324 5315 5307 5299 5291 5283 5276 5268 5261 5256 5250 5246 5242 5238 5234 5231 5228 5226 5224 5222 5221 5220 5219 5218 5218 5218 5218 5217 5216 5216 5215 5215 5215 5216 5216 5217 5218